FW8759 Weather Reports


Display with metric or nautical units.
time (UTC)temp
F
wind
direction
speed
MPH
gust
MPH
rain 1hr
in
rain 24hr
in
rain mn
in
humidity
%
barometer
mb
20260906105457 69 220 0.0 0.0 0.00 0.00 0.00 99 1010.5
20260906104953 69 220 0.0 0.0 0.00 0.00 0.00 99 1010.3
20260906104452 69 220 0.0 0.0 0.00 0.00 0.00 99 1010.4
20260906103951 69 220 0.0 0.0 0.00 0.00 0.00 99 1010.3
20260906103449 69 220 0.0 0.0 0.00 0.00 0.00 99 1010.3
20260906102945 69 220 0.0 0.0 0.00 0.00 0.00 99 1010.2
20260906102444 69 220 0.0 0.0 0.00 0.00 0.00 99 1010.1
20260906101939 69 220 0.0 0.0 0.00 0.00 0.00 99 1010.3
20260906101434 69 220 0.0 0.0 0.00 0.00 0.00 99 1010.3
20260906100929 69 220 0.0 0.0 0.00 0.00 0.00 99 1010.2
20260906100424 69 219 0.0 0.0 0.00 0.00 0.00 99 1010.1
20260906095918 69 220 0.0 0.0 0.00 0.00 0.00 99 1010.4
20260906095414 69 220 0.0 0.0 0.00 0.00 0.00 99 1010.5
20260906094913 69 219 0.0 0.0 0.00 0.00 0.00 99 1010.3
20260906094403 69 219 0.0 0.0 0.00 0.00 0.00 99 1010.2
20260906093859 69 219 0.0 0.0 0.00 0.00 0.00 99 1010.3
20260906093355 69 218 0.0 0.0 0.00 0.00 0.00 99 1010.0
20260906092855 69 218 0.0 0.0 0.00 0.00 0.00 99 1010.2
20260906092355 69 218 0.0 0.0 0.00 0.00 0.00 99 1010.4
20260906091850 69 218 0.0 0.0 0.00 0.00 0.00 99 1010.5
20260906091346 69 218 0.0 0.0 0.00 0.00 0.00 99 1010.5
20260906090843 69 218 0.0 0.0 0.00 0.00 0.00 99 1010.4
20260906090342 69 217 0.0 0.0 0.00 0.00 0.00 99 1010.4
20260906085836 69 218 0.0 0.0 0.00 0.00 0.00 99 1010.3
20260906085330 69 218 0.0 0.0 0.00 0.00 0.00 99 1010.3
20260906084825 69 218 0.0 0.0 0.00 0.00 0.00 99 1010.1
20260906084325 69 219 0.0 0.0 0.00 0.00 0.00 99 1010.3
20260906083819 69 219 0.0 0.0 0.00 0.00 0.00 99 1010.0
20260906083314 70 220 0.0 0.0 0.00 0.00 0.00 99 1010.2
20260906082809 70 219 0.0 0.0 0.00 0.00 0.00 99 1010.3
20260906082306 69 220 0.0 0.0 0.00 0.00 0.00 99 1010.1
20260906081800 69 220 0.0 0.0 0.00 0.00 0.00 99 1010.0
20260906081256 69 220 0.0 0.0 0.00 0.00 0.00 99 1010.1
20260906080752 69 220 0.0 0.0 0.00 0.00 0.00 99 1010.4
20260906080248 69 220 0.0 0.0 0.00 0.00 0.00 99 1010.3
20260906075748 69 221 0.0 0.0 0.00 0.00 0.00 99 1010.1
20260906075247 69 221 0.0 0.0 0.00 0.00 0.00 99 1010.0
20260906074743 69 221 0.0 0.0 0.00 0.00 0.00 99 1010.2
20260906074242 69 222 0.0 0.0 0.00 0.00 0.00 99 1010.2
20260906073741 69 221 0.0 0.0 0.00 0.00 0.00 99 1010.1
20260906073237 69 219 0.0 0.0 0.00 0.00 0.00 99 1010.1
20260906072732 69 219 0.0 0.0 0.00 0.00 0.00 99 1010.2
20260906072228 69 219 0.0 0.0 0.00 0.00 0.00 99 1010.1
20260906071724 70 222 0.0 0.0 0.00 0.00 0.00 99 1010.4
20260906071224 69 222 0.0 0.0 0.00 0.00 0.00 99 1010.5
20260906070721 69 222 0.0 0.0 0.00 0.00 0.00 99 1010.5
20260906070216 69 222 0.0 0.0 0.00 0.00 0.00 99 1010.5
20260906065715 70 222 0.0 0.0 0.00 0.00 0.00 99 1010.4
20260906065211 70 222 0.0 0.0 0.00 0.00 0.00 99 1010.1
20260906064706 70 219 0.0 0.0 0.00 0.00 0.00 99 1010.3
20260906064201 70 216 0.0 0.0 0.00 0.00 0.00 99 1010.2
20260906063656 70 220 0.0 0.0 0.00 0.00 0.00 99 1010.2
20260906063152 70 218 0.0 0.0 0.00 0.00 0.00 99 1010.2
20260906062648 70 209 0.0 0.0 0.00 0.00 0.00 99 1010.4
20260906062146 70 211 0.0 0.0 0.00 0.00 0.00 99 1010.4
20260906061643 70 211 0.0 0.0 0.00 0.00 0.00 99 1010.6
20260906061143 70 212 0.0 0.0 0.00 0.00 0.00 99 1010.5
20260906060639 70 210 0.0 0.0 0.00 0.00 0.00 99 1010.4
20260906060136 70 210 0.0 0.0 0.00 0.00 0.00 99 1010.6
20260906055632 71 210 0.0 0.0 0.00 0.00 0.00 99 1010.7
20260906055127 71 215 0.0 0.0 0.00 0.00 0.00 99 1010.7
20260906054622 71 258 0.0 0.0 0.00 0.00 0.00 99 1010.8
20260906054117 71 259 0.0 0.0 0.00 0.00 0.00 99 1010.8
20260906053614 71 259 0.0 0.0 0.00 0.00 0.00 99 1011.0
20260906053108 71 257 0.0 0.0 0.00 0.00 0.00 99 1011.0
20260906052604 71 258 0.0 0.0 0.00 0.00 0.00 99 1010.9
20260906052101 71 264 0.0 0.0 0.00 0.00 0.00 99 1011.2
20260906051556 71 258 0.0 0.0 0.00 0.00 0.00 98 1011.1
20260906051051 71 257 0.0 0.0 0.00 0.00 0.00 98 1011.7
20260906050546 71 257 0.0 0.0 0.00 0.00 0.00 98 1011.4
20260906050042 71 258 0.0 0.0 0.00 0.00 0.00 98 1011.2
20260906045539 71 261 0.0 0.0 0.00 0.00 0.00 98 1011.2
20260906045036 71 264 0.0 0.0 0.00 0.00 0.00 99 1011.4
20260906044531 71 267 0.0 0.0 0.00 0.00 0.00 99 1011.4
20260906044026 71 278 0.0 0.0 0.00 0.00 0.00 98 1011.4
20260906043522 71 276 0.0 0.0 0.00 0.00 0.00 99 1011.5
20260906043018 71 276 0.0 0.0 0.00 0.00 0.00 98 1011.6
20260906042516 71 282 0.0 0.0 0.00 0.00 0.00 98 1011.5
20260906042011 72 288 0.0 0.0 0.00 0.00 0.00 98 1011.6
20260906041508 72 277 0.0 0.0 0.00 0.00 0.00 98 1011.4
20260906041007 72 277 0.0 0.0 0.00 0.00 0.00 97 1011.5
20260906040503 72 276 0.0 0.0 0.00 0.00 0.00 97 1011.7
20260906035957 72 276 0.0 0.0 0.00 0.00 0.00 97 1011.5
20260906035453 72 285 0.0 0.0 0.00 0.00 0.00 96 1011.3
20260906034948 72 287 0.0 0.0 0.00 0.00 0.00 96 1011.3
20260906034443 72 285 0.0 0.0 0.00 0.00 0.00 97 1011.5
20260906033938 72 277 0.0 0.0 0.00 0.00 0.00 97 1011.2
20260906033438 72 277 0.0 0.0 0.00 0.00 0.00 97 1011.4
20260906032934 72 277 0.0 0.0 0.00 0.00 0.00 97 1011.4
20260906032425 72 287 0.0 0.0 0.00 0.00 0.00 97 1011.5
20260906031919 72 283 0.0 0.0 0.00 0.00 0.00 97 1011.4
20260906031414 72 286 0.0 0.0 0.00 0.00 0.00 97 1011.3
20260906030909 72 277 0.0 0.0 0.00 0.00 0.00 97 1011.7
20260906030404 72 286 0.0 0.0 0.00 0.00 0.00 97 1011.4
20260906025859 73 285 0.0 0.0 0.00 0.00 0.00 97 1011.8
20260906025359 72 273 0.0 0.0 0.00 0.00 0.00 97 1011.7
20260906024857 73 282 0.0 0.0 0.00 0.00 0.00 97 1011.5
20260906024357 73 294 0.0 0.0 0.00 0.00 0.00 97 1011.4
20260906023852 73 287 0.0 0.0 0.00 0.00 0.00 96 1011.7
20260906023349 73 280 0.0 0.0 0.00 0.00 0.00 96 1011.5
20260906022848 73 290 0.0 0.0 0.00 0.00 0.00 96 1011.8
20260906022343 73 268 0.0 0.0 0.00 0.00 0.00 96 1011.7
20260906021839 73 270 0.0 0.0 0.00 0.00 0.00 96 1012.0
20260906021338 73 272 0.0 0.0 0.00 0.00 0.00 96 1011.6
20260906020834 73 282 0.0 0.0 0.00 0.00 0.00 95 1011.8
20260906020333 74 285 0.0 0.0 0.00 0.00 0.00 95 1011.5
20260906015828 74 281 0.0 0.0 0.00 0.00 0.00 94 1011.5
20260906015327 74 265 0.0 0.0 0.00 0.00 0.00 94 1011.3
20260906014826 74 264 0.0 0.0 0.00 0.00 0.00 93 1011.6
20260906014322 75 267 0.0 0.0 0.00 0.00 0.00 92 1011.6
20260906013818 74 268 0.0 0.0 0.00 0.00 0.00 93 1011.2
20260906013313 74 268 0.0 0.0 0.00 0.00 0.00 93 1011.5
20260906012808 74 271 0.0 0.0 0.00 0.00 0.00 93 1011.2
20260906012306 74 283 0.0 0.0 0.00 0.00 0.00 93 1011.1
20260906011758 74 267 0.0 0.0 0.00 0.00 0.00 93 1010.8
20260906011258 74 271 0.0 0.0 0.00 0.00 0.00 93 1010.9
20260906010754 75 284 0.0 0.0 0.00 0.00 0.00 93 1010.8
20260906010250 75 265 0.0 0.0 0.00 0.00 0.00 93 1010.6
20260906005745 75 265 0.0 0.0 0.00 0.00 0.00 93 1010.5
20260906005244 75 260 0.0 0.0 0.00 0.00 0.00 92 1010.5
20260906004743 75 260 0.0 0.0 0.00 0.00 0.00 92 1010.4
20260906004239 75 260 0.0 0.0 0.00 0.00 0.00 91 1010.6
20260906003739 75 276 0.0 0.0 0.00 0.00 0.00 91 1010.3
20260906003234 75 269 0.0 0.0 0.00 0.00 0.00 90 1010.1
20260906002729 76 272 0.0 0.0 0.00 0.00 0.00 90 1010.1
20260906002229 76 258 0.0 0.0 0.00 0.00 0.00 90 1010.0
20260906001724 76 258 0.0 0.0 0.00 0.00 0.00 89 1009.7
20260906001219 76 267 0.0 0.0 0.00 0.00 0.00 89 1010.1
20260906000714 76 272 0.0 0.0 0.00 0.00 0.00 89 1009.6
20260906000212 77 274 0.0 0.0 0.00 0.00 0.00 88 1009.6
20260905235709 77 268 0.0 0.0 0.00 0.00 0.00 88 1009.8
20260905235204 77 265 0.0 0.0 0.00 0.00 0.00 86 1009.9
20260905234659 77 265 0.0 0.0 0.00 0.00 0.00 86 1009.7
20260905234154 78 269 0.0 0.0 0.00 0.00 0.00 85 1009.8
20260905233650 78 258 0.0 0.0 0.00 0.00 0.00 85 1010.0
20260905233149 78 258 0.0 0.0 0.00 0.00 0.00 84 1010.1
20260905232644 78 272 0.0 0.0 0.00 0.00 0.00 84 1009.9
20260905232140 79 280 0.0 0.0 0.00 0.00 0.00 83 1010.0
20260905231635 79 272 0.0 0.0 0.00 0.00 0.00 83 1010.3
20260905231131 79 278 0.0 0.0 0.00 0.00 0.00 83 1010.3
20260905230627 79 272 0.0 0.0 0.00 0.00 0.00 83 1010.2
20260905230125 78 258 0.0 0.0 0.00 0.00 0.00 83 1010.3
20260905225624 78 267 0.0 0.0 0.00 0.00 0.00 83 1010.2
20260905225120 79 276 0.0 0.0 0.00 0.00 0.00 82 1010.2
20260905224619 79 272 0.0 0.0 0.00 0.00 0.00 82 1010.3
20260905224119 79 272 0.0 0.0 0.00 0.00 0.00 82 1010.5
20260905223616 79 272 0.0 0.0 0.00 0.00 0.00 81 1010.2
20260905223112 79 283 0.0 0.0 0.00 0.00 0.00 80 1009.8
20260905222612 79 276 0.0 0.0 0.00 0.00 0.00 79 1009.8
20260905222108 79 277 0.0 0.0 0.00 0.00 0.00 78 1010.2
20260905221603 79 236 0.0 0.0 0.00 0.00 0.00 78 1010.4
20260905221100 79 256 0.0 0.0 0.00 0.00 0.00 77 1010.5
20260905220555 79 259 0.0 0.0 0.00 0.00 0.00 76 1010.2
20260905220051 79 237 0.0 0.0 0.00 0.00 0.00 75 1010.0
20260905215550 79 259 0.0 0.0 0.00 0.00 0.00 74 1009.7
20260905215046 80 236 0.0 0.0 0.00 0.00 0.00 73 1009.9
20260905214542 80 258 0.0 0.0 0.00 0.00 0.00 72 1010.2
20260905214037 81 236 0.0 0.0 0.00 0.00 0.00 71 1010.4
20260905213532 82 262 0.0 0.0 0.00 0.00 0.00 68 1010.6
20260905213028 84 252 0.0 0.0 0.00 0.00 0.00 67 1010.7
20260905212522 86 281 0.0 0.0 0.00 0.00 0.00 64 1010.2
20260905212022 88 308 0.0 0.0 0.00 0.00 0.00 62 1010.2
20260905211517 90 319 0.0 0.0 0.00 0.00 0.00 61 1009.7
20260905211013 91 324 0.0 0.0 0.00 0.00 0.00 63 1009.7
20260905210509 92 340 0.0 0.0 0.00 0.00 0.00 61 1009.9
20260905210008 93 340 0.0 0.0 0.00 0.00 0.00 59 1009.2
20260905205503 93 330 0.0 0.0 0.00 0.00 0.00 57 1009.6
20260905205001 94 351 0.0 0.0 0.00 0.00 0.00 55 1009.5
20260905204457 94 341 0.0 0.0 0.00 0.00 0.00 54 1009.5
20260905203956 95 358 0.0 0.0 0.00 0.00 0.00 54 1009.3
20260905203452 94 318 0.0 0.0 0.00 0.00 0.00 54 1009.6
20260905202947 94 336 0.0 0.0 0.00 0.00 0.00 55 1009.5
20260905202442 93 341 0.0 0.0 0.00 0.00 0.00 56 1009.6
20260905201938 92 330 0.0 0.0 0.00 0.00 0.00 57 1009.7
20260905201433 93 331 0.0 0.0 0.00 0.00 0.00 57 1010.0
20260905200933 93 333 0.0 0.0 0.00 0.00 0.00 57 1009.8
20260905200429 96 330 0.0 0.0 0.00 0.00 0.00 53 1009.8
20260905195927 95 334 0.0 0.0 0.00 0.00 0.00 51 1009.6
20260905195422 95 332 0.0 0.0 0.00 0.00 0.00 51 1009.9
20260905194918 96 336 0.0 0.0 0.00 0.00 0.00 52 1010.0
20260905194412 95 339 0.0 0.0 0.00 0.00 0.00 53 1009.8
20260905193911 95 331 0.0 0.0 0.00 0.00 0.00 53 1009.9
20260905193406 95 330 0.0 0.0 0.00 0.00 0.00 55 1010.0
20260905192901 95 331 0.0 0.0 0.00 0.00 0.00 55 1009.9
20260905192357 97 321 0.0 0.0 0.00 0.00 0.00 53 1010.1
20260905191857 98 321 0.0 0.0 0.00 0.00 0.00 49 1010.4
20260905191356 96 321 0.0 0.0 0.00 0.00 0.00 51 1010.5
20260905190850 97 349 0.0 0.0 0.00 0.00 0.00 52 1010.3
20260905190348 98 298 0.0 0.0 0.00 0.00 0.00 52 1010.3
20260905185847 99 297 0.0 0.0 0.00 0.00 0.00 52 1010.2
20260905185343 99 321 0.0 0.0 0.00 0.00 0.00 51 1010.5
20260905184842 100 302 0.0 0.0 0.00 0.00 0.00 50 1010.4
20260905184341 99 302 0.0 0.0 0.00 0.00 0.00 52 1010.4
20260905183839 98 317 0.0 0.0 0.00 0.00 0.00 52 1010.4
20260905183335 97 317 0.0 0.0 0.00 0.00 0.00 53 1010.5
20260905182830 97 328 0.0 0.0 0.00 0.00 0.00 53 1010.4
20260905182329 98 322 0.0 0.0 0.00 0.00 0.00 50 1010.5
20260905181825 96 324 0.0 0.0 0.00 0.00 0.00 51 1010.7
20260905181324 96 332 0.0 0.0 0.00 0.00 0.00 53 1010.6
20260905180823 96 298 0.0 0.0 0.00 0.00 0.00 53 1011.1
20260905180319 96 297 0.0 0.0 0.00 0.00 0.00 54 1011.1
20260905175814 95 328 0.0 0.0 0.00 0.00 0.00 54 1011.1
20260905175308 96 315 0.0 0.0 0.00 0.00 0.00 55 1011.1
20260905174803 96 313 0.0 0.0 0.00 0.00 0.00 54 1011.1
20260905174259 98 310 0.0 0.0 0.00 0.00 0.00 51 1011.1
20260905173755 97 310 0.0 0.0 0.00 0.00 0.00 54 1011.1
20260905173251 97 322 0.0 0.0 0.00 0.00 0.00 53 1011.5
20260905172750 96 329 0.0 0.0 0.00 0.00 0.00 54 1011.4
20260905172249 95 332 0.0 0.0 0.00 0.00 0.00 54 1011.5
20260905171745 95 315 0.0 0.0 0.00 0.00 0.00 54 1011.6
20260905171242 95 311 0.0 0.0 0.00 0.00 0.00 54 1011.5
20260905170738 93 311 0.0 0.0 0.00 0.00 0.00 57 1011.7
20260905170233 93 309 0.0 0.0 0.00 0.00 0.00 59 1011.8
20260905165732 94 341 0.0 0.0 0.00 0.00 0.00 57 1011.8
20260905165228 94 324 0.0 0.0 0.00 0.00 0.00 57 1011.6
20260905164727 94 325 0.0 0.0 0.00 0.00 0.00 58 1011.8
20260905164222 95 322 0.0 0.0 0.00 0.00 0.00 58 1012.0
20260905163719 95 285 0.0 0.0 0.00 0.00 0.00 58 1011.9
20260905163215 94 289 0.0 0.0 0.00 0.00 0.00 59 1012.0
20260905162711 94 287 0.0 0.0 0.00 0.00 0.00 61 1011.9
20260905162210 94 275 0.0 0.0 0.00 0.00 0.00 60 1012.4
20260905161705 93 274 0.0 0.0 0.00 0.00 0.00 63 1012.4
20260905161203 93 304 0.0 0.0 0.00 0.00 0.00 63 1012.4
20260905160656 93 282 0.0 0.0 0.00 0.00 0.00 63 1012.5
20260905160155 93 296 0.0 0.0 0.00 0.00 0.00 63 1012.5
20260905155650 94 274 0.0 0.0 0.00 0.00 0.00 63 1012.6
20260905155149 92 278 0.0 0.0 0.00 0.00 0.00 65 1012.8
20260905154643 93 280 0.0 0.0 0.00 0.00 0.00 63 1012.6
20260905154139 92 273 0.0 0.0 0.00 0.00 0.00 65 1012.6
20260905153635 91 273 0.0 0.0 0.00 0.00 0.00 67 1012.7
20260905153130 92 267 0.0 0.0 0.00 0.00 0.00 67 1012.7
20260905152625 90 270 0.0 0.0 0.00 0.00 0.00 70 1012.5
20260905152120 91 267 0.0 0.0 0.00 0.00 0.00 73 1012.8
20260905151615 90 269 0.0 0.0 0.00 0.00 0.00 69 1012.9
20260905151110 90 267 0.0 0.0 0.00 0.00 0.00 73 1012.9
20260905150606 88 266 0.0 0.0 0.00 0.00 0.00 74 1013.0
20260905145556 87 270 0.0 0.0 0.00 0.00 0.00 74 1012.9
20260905145055 87 260 0.0 0.0 0.00 0.00 0.00 73 1012.9
20260905144551 86 261 0.0 0.0 0.00 0.00 0.00 75 1012.8
20260905144050 87 262 0.0 0.0 0.00 0.00 0.00 74 1013.0
20260905143549 87 267 0.0 0.0 0.00 0.00 0.00 78 1012.9
20260905143045 87 267 0.0 0.0 0.00 0.00 0.00 75 1012.9
20260905142543 85 267 0.0 0.0 0.00 0.00 0.00 78 1012.9
20260905142038 83 266 0.0 0.0 0.00 0.00 0.00 80 1012.9
20260905141533 82 267 0.0 0.0 0.00 0.00 0.00 84 1013.1
20260905141029 82 269 0.0 0.0 0.00 0.00 0.00 83 1012.8
20260905140524 81 277 0.0 0.0 0.00 0.00 0.00 85 1013.1
20260905140023 80 277 0.0 0.0 0.00 0.00 0.00 86 1013.0
20260905135519 80 277 0.0 0.0 0.00 0.00 0.00 87 1013.1
20260905135014 79 277 0.0 0.0 0.00 0.00 0.00 89 1013.1
20260905134514 78 278 0.0 0.0 0.00 0.00 0.00 91 1013.2
20260905134012 78 278 0.0 0.0 0.00 0.00 0.00 93 1013.3
20260905133508 77 278 0.0 0.0 0.00 0.00 0.00 95 1013.3
20260905133002 77 278 0.0 0.0 0.00 0.00 0.00 97 1013.4
20260905132457 76 278 0.0 0.0 0.00 0.00 0.00 98 1013.2
20260905131956 75 278 0.0 0.0 0.00 0.00 0.00 98 1013.1
20260905131453 75 278 0.0 0.0 0.00 0.00 0.00 99 1013.4
20260905130948 74 279 0.0 0.0 0.00 0.00 0.00 99 1013.3
20260905130442 74 279 0.0 0.0 0.00 0.00 0.00 99 1013.2
20260905125941 74 279 0.0 0.0 0.00 0.00 0.00 99 1013.4
20260905125436 73 279 0.0 0.0 0.00 0.00 0.00 99 1013.2
20260905124932 73 279 0.0 0.0 0.00 0.00 0.00 99 1013.4
20260905124428 73 279 0.0 0.0 0.00 0.00 0.00 99 1013.2
20260905123928 72 279 0.0 0.0 0.00 0.00 0.00 99 1013.3
20260905123425 72 279 0.0 0.0 0.00 0.00 0.00 99 1013.4
20260905122920 72 279 0.0 0.0 0.00 0.00 0.00 99 1013.1
20260905122419 72 279 0.0 0.0 0.00 0.00 0.00 99 1013.4
20260905121915 71 280 0.0 0.0 0.00 0.00 0.00 99 1013.2
20260905121410 71 279 0.0 0.0 0.00 0.00 0.00 99 1013.3
20260905120910 71 279 0.0 0.0 0.00 0.00 0.00 99 1013.3
20260905120410 71 279 0.0 0.0 0.00 0.00 0.00 99 1012.9
20260905115905 71 279 0.0 0.0 0.00 0.00 0.00 99 1013.1
20260905115404 71 279 0.0 0.0 0.00 0.00 0.00 99 1013.0
20260905114859 71 279 0.0 0.0 0.00 0.00 0.00 99 1012.9
20260905114358 71 279 0.0 0.0 0.00 0.00 0.00 99 1012.8
20260905113852 71 279 0.0 0.0 0.00 0.00 0.00 99 1012.9
20260905113348 71 280 0.0 0.0 0.00 0.00 0.00 99 1012.8
20260905112843 71 280 0.0 0.0 0.00 0.00 0.00 99 1012.9
20260905112337 71 279 0.0 0.0 0.00 0.00 0.00 99 1012.6
20260905111833 71 279 0.0 0.0 0.00 0.00 0.00 99 1012.8
20260905111327 71 279 0.0 0.0 0.00 0.00 0.00 99 1012.3
20260905110826 71 280 0.0 0.0 0.00 0.00 0.00 99 1012.4
20260905110320 71 279 0.0 0.0 0.00 0.00 0.00 99 1012.5
20260905105816 71 279 0.0 0.0 0.00 0.00 0.00 99 1012.5